• en France
  • Liste des pays
  • À 7 jours
  • Température de l'eau
  • Carte satellitaire
  • Carte météo
  • Widgets météo
  • user-avatar
    Se connecter

    Météo par heure à Brusyanaya

    Ce jour, 21 Septembre, Vendredi

    Heure Température Précipitation Vent Pression Humidité
    00:00 +14°C° 0 mm 2 m/s 748 mmHg 91%
    01:00 +13°C° 0 mm 2 m/s 748 mmHg 91%
    02:00 +13°C° 0 mm 2 m/s 749 mmHg 92%
    03:00 +13°C° 0 mm 2 m/s 749 mmHg 92%
    04:00 +13°C° 0 mm 2 m/s 749 mmHg 92%
    05:00 +12°C° 0 mm 2 m/s 750 mmHg 92%
    06:00 +12°C° 0 mm 2 m/s 750 mmHg 93%
    07:00 +14°C° 0 mm 2 m/s 750 mmHg 86%
    08:00 +16°C° 0 mm 2 m/s 750 mmHg 80%
    09:00 +17°C° 0 mm 2 m/s 751 mmHg 72%
    10:00 +19°C° 0 mm 2 m/s 751 mmHg 67%
    11:00 +20°C° 0 mm 2 m/s 751 mmHg 62%
    12:00 +23°C° 0 mm 2 m/s 751 mmHg 57%
    13:00 +23°C° 0 mm 2 m/s 751 mmHg 55%
    14:00 +24°C° 0 mm 2 m/s 751 mmHg 54%
    15:00 +25°C° 0 mm 2 m/s 751 mmHg 52%
    16:00 +23°C° 0 mm 1 m/s 751 mmHg 57%
    17:00 +22°C° 0 mm 1 m/s 751 mmHg 62%
    18:00 +21°C° 0 mm 1 m/s 751 mmHg 67%
    19:00 +20°C° 0 mm 1 m/s 751 mmHg 70%
    20:00 +19°C° 0 mm 1 m/s 751 mmHg 73%
    21:00 +18°C° 0 mm 1 m/s 751 mmHg 76%
    22:00 +18°C° 0 mm 1 m/s 751 mmHg 77%
    23:00 +18°C° 0 mm 1 m/s 752 mmHg 79%

    Demain, 22 Septembre, Samedi

    Heure Température Précipitation Vent Pression Humidité
    00:00 +16°C° 0 mm 2 m/s 752 mmHg 81%
    01:00 +16°C° 0 mm 2 m/s 752 mmHg 83%
    02:00 +16°C° 0 mm 2 m/s 752 mmHg 84%
    03:00 +15°C° 0 mm 2 m/s 752 mmHg 86%
    04:00 +15°C° 0 mm 2 m/s 752 mmHg 87%
    05:00 +15°C° 0 mm 2 m/s 752 mmHg 88%
    06:00 +14°C° 0 mm 2 m/s 752 mmHg 89%
    07:00 +16°C° 0 mm 3 m/s 752 mmHg 83%
    08:00 +18°C° 0 mm 3 m/s 752 mmHg 76%
    09:00 +19°C° 0 mm 3 m/s 752 mmHg 69%
    10:00 +21°C° 0 mm 4 m/s 752 mmHg 64%
    11:00 +22°C° 0 mm 4 m/s 751 mmHg 59%
    12:00 +25°C° 0 mm 4 m/s 751 mmHg 53%
    13:00 +25°C° 0 mm 4 m/s 751 mmHg 52%
    14:00 +26°C° 0 mm 4 m/s 751 mmHg 51%
    15:00 +26°C° 0 mm 4 m/s 750 mmHg 50%
    16:00 +23°C° 0 mm 4 m/s 750 mmHg 55%
    17:00 +22°C° 0 mm 3 m/s 750 mmHg 61%
    18:00 +21°C° 0 mm 3 m/s 749 mmHg 67%
    19:00 +20°C° 0 mm 3 m/s 749 mmHg 68%
    20:00 +19°C° 0 mm 3 m/s 749 mmHg 69%
    21:00 +18°C° 0 mm 4 m/s 749 mmHg 70%
    22:00 +18°C° 0 mm 4 m/s 749 mmHg 70%
    23:00 +18°C° 0 mm 4 m/s 749 mmHg 70%

    Après-demain, 23 Septembre, Dimanche

    Heure Température Précipitation Vent Pression Humidité
    00:00 +17°C° 0 mm 4 m/s 748 mmHg 70%
    01:00 +17°C° 0 mm 4 m/s 748 mmHg 70%
    02:00 +17°C° 0 mm 4 m/s 748 mmHg 71%
    03:00 +15°C° 0 mm 4 m/s 747 mmHg 71%
    04:00 +15°C° 0 mm 4 m/s 747 mmHg 72%
    05:00 +15°C° 0 mm 5 m/s 746 mmHg 72%
    06:00 +15°C° 0 mm 5 m/s 746 mmHg 72%
    07:00 +16°C° 0 mm 5 m/s 745 mmHg 68%
    08:00 +17°C° 0 mm 6 m/s 745 mmHg 64%
    09:00 +18°C° 0 mm 7 m/s 744 mmHg 60%
    10:00 +21°C° 0 mm 7 m/s 744 mmHg 56%
    11:00 +22°C° 0 mm 8 m/s 743 mmHg 52%
    12:00 +24°C° 0 mm 8 m/s 743 mmHg 47%
    13:00 +23°C° 0 mm 8 m/s 743 mmHg 49%
    14:00 +23°C° 0 mm 7 m/s 743 mmHg 50%
    15:00 +23°C° 0 mm 7 m/s 742 mmHg 51%
    16:00 +20°C° 0.7 mm 6 m/s 742 mmHg 62%
    17:00 +15°C° 0.7 mm 6 m/s 742 mmHg 72%
    18:00 +11°C° 0.7 mm 6 m/s 742 mmHg 83%
    19:00 +10°C° 1 mm 5 m/s 742 mmHg 84%
    20:00 +10°C° 1 mm 5 m/s 742 mmHg 86%
    21:00 +9°C° 1 mm 5 m/s 743 mmHg 87%
    22:00 +9°C° 3.4 mm 5 m/s 743 mmHg 89%
    23:00 +10°C° 3.4 mm 4 m/s 743 mmHg 90%

    24 Septembre, Lundi

    Heure Température Précipitation Vent Pression Humidité
    00:00 +8°C° 3.4 mm 4 m/s 743 mmHg 91%
    01:00 +8°C° 0.9 mm 4 m/s 743 mmHg 91%
    02:00 +10°C° 0.9 mm 4 m/s 743 mmHg 90%
    03:00 +10°C° 0.9 mm 4 m/s 743 mmHg 89%
    04:00 +8°C° 0.1 mm 4 m/s 743 mmHg 90%
    05:00 +8°C° 0.1 mm 4 m/s 743 mmHg 91%
    06:00 +8°C° 0.1 mm 3 m/s 743 mmHg 92%
    07:00 +8°C° 0 mm 4 m/s 743 mmHg 89%
    08:00 +10°C° 0 mm 4 m/s 744 mmHg 85%
    09:00 +11°C° 0 mm 4 m/s 744 mmHg 82%
    10:00 +12°C° 0 mm 4 m/s 744 mmHg 74%
    11:00 +13°C° 0 mm 4 m/s 744 mmHg 66%
    12:00 +14°C° 0 mm 4 m/s 744 mmHg 58%
    13:00 +15°C° 0 mm 4 m/s 744 mmHg 56%
    14:00 +15°C° 0 mm 4 m/s 744 mmHg 54%
    15:00 +15°C° 0 mm 4 m/s 744 mmHg 52%
    16:00 +14°C° 0 mm 3 m/s 743 mmHg 57%
    17:00 +13°C° 0 mm 3 m/s 743 mmHg 62%
    18:00 +13°C° 0 mm 2 m/s 742 mmHg 67%
    19:00 +13°C° 0 mm 2 m/s 742 mmHg 68%
    20:00 +12°C° 0 mm 3 m/s 742 mmHg 68%
    21:00 +11°C° 0 mm 3 m/s 742 mmHg 69%
    22:00 +11°C° 0.5 mm 4 m/s 741 mmHg 72%
    23:00 +10°C° 0.5 mm 5 m/s 740 mmHg 76%

    25 Septembre, Mardi

    Heure Température Précipitation Vent Pression Humidité
    00:00 +10°C° 0.5 mm 6 m/s 739 mmHg 79%
    01:00 +9°C° 1 mm 7 m/s 738 mmHg 81%
    02:00 +9°C° 1 mm 8 m/s 736 mmHg 83%
    03:00 +8°C° 1 mm 9 m/s 735 mmHg 85%
    04:00 +8°C° 0.2 mm 9 m/s 734 mmHg 84%
    05:00 +9°C° 0.2 mm 8 m/s 734 mmHg 83%
    06:00 +10°C° 0.2 mm 8 m/s 733 mmHg 82%
    07:00 +9°C° 0.1 mm 8 m/s 732 mmHg 80%
    08:00 +8°C° 0.1 mm 9 m/s 732 mmHg 78%
    09:00 +8°C° 0.1 mm 9 m/s 731 mmHg 76%
    10:00 +8°C° 0.1 mm 9 m/s 731 mmHg 76%
    11:00 +8°C° 0.1 mm 9 m/s 731 mmHg 75%
    12:00 +8°C° 0.1 mm 9 m/s 731 mmHg 75%
    13:00 +8°C° 0.2 mm 9 m/s 731 mmHg 76%
    14:00 +8°C° 0.2 mm 9 m/s 731 mmHg 77%
    15:00 +8°C° 0.2 mm 9 m/s 731 mmHg 78%
    16:00 +9°C° 0.3 mm 8 m/s 731 mmHg 80%
    17:00 +9°C° 0.3 mm 8 m/s 731 mmHg 82%
    18:00 +7°C° 0.3 mm 8 m/s 732 mmHg 85%
    19:00 +8°C° 0.4 mm 7 m/s 732 mmHg 85%
    20:00 +8°C° 0.4 mm 7 m/s 732 mmHg 86%
    21:00 +8°C° 0.4 mm 7 m/s 733 mmHg 87%
    22:00 +8°C° 0.4 mm 7 m/s 733 mmHg 87%
    23:00 +8°C° 0.4 mm 7 m/s 734 mmHg 86%

    26 Septembre, Mercredi

    Heure Température Précipitation Vent Pression Humidité
    00:00 +6°C° 0.4 mm 8 m/s 735 mmHg 86%
    01:00 +6°C° 0.3 mm 8 m/s 735 mmHg 86%
    02:00 +6°C° 0.3 mm 8 m/s 736 mmHg 85%
    03:00 +6°C° 0.3 mm 8 m/s 737 mmHg 84%
    04:00 +6°C° 0.2 mm 8 m/s 738 mmHg 84%
    05:00 +5°C° 0.2 mm 8 m/s 739 mmHg 84%
    06:00 +5°C° 0.2 mm 7 m/s 740 mmHg 84%
    07:00 +5°C° 0.1 mm 7 m/s 740 mmHg 82%
    08:00 +5°C° 0.1 mm 7 m/s 741 mmHg 81%
    09:00 +5°C° 0.1 mm 7 m/s 742 mmHg 80%
    10:00 +5°C° 0 mm 7 m/s 742 mmHg 78%
    11:00 +5°C° 0 mm 7 m/s 743 mmHg 75%
    12:00 +5°C° 0 mm 6 m/s 744 mmHg 73%
    13:00 +5°C° 0 mm 6 m/s 744 mmHg 72%
    14:00 +5°C° 0 mm 6 m/s 744 mmHg 70%
    15:00 +6°C° 0 mm 5 m/s 744 mmHg 69%
    16:00 +6°C° 0 mm 4 m/s 745 mmHg 70%
    17:00 +7°C° 0 mm 3 m/s 745 mmHg 71%
    18:00 +6°C° 0 mm 2 m/s 745 mmHg 72%
    19:00 +6°C° 0 mm 2 m/s 745 mmHg 74%
    20:00 +6°C° 0 mm 2 m/s 745 mmHg 75%
    21:00 +5°C° 0 mm 2 m/s 745 mmHg 77%
    22:00 +5°C° 0 mm 2 m/s 745 mmHg 78%
    23:00 +5°C° 0 mm 1 m/s 745 mmHg 79%
    Voir plus